Content
SEND FEEDBACK

Daily
Averages
Monthly
Summary
Thailand

BAN MUANG MAI, THAILAND


Home > Asia > Thailand
Elevation: 33 feet     Latitude: 08 01N     Longitude: 098 19E

WEATHER
 
SELECT A DAY
Number of Records: 227,722;   Date Range: 7/1/96 - 8/12/14
 
SHARE

PRINT THIS DATA

[ ← Previous Day ]
WEATHER ALMANAC - FEBRUARY 4, 2013
[ Next Day → ]
[ °C ]   °F
Weather ElementAverageHighLow
Temperature83.6 °F95 °F (3:00 pm)75 °F (7:00 am)
Dewpoint70.9 °F75.2 °F (4:00 pm)66.2 °F (2:30 pm)
Humidity67.4 %91 % (7:00 am)39 % (3:00 pm)
Barometer29.87 in29.92 in (8:00 am)29.80 in (3:00 pm)
Wind Speed7.2 mph19.6 mph (11:00 am)
Weather ElementAverage
Visibility6.1 mi
Wind DirectionENE (66.2 °)

Weather ElementTotal
Precipitation---
Cooling Degree Days20 (Base 65)
Growing Degree Days35 (Base 50)
Averaged from 41 records on February 4, 2013
WEATHER CONDITIONS BREAKOUT
WIND DIRECTION BREAKOUT
WEATHER BY HOUR - FEBRUARY 4, 2013
[ °C ]   °F
Local TimeTemperatureDewpointHumidityBarometerVisibilityWind DirectionWind SpeedGust SpeedPrecipitationEventsConditions
12:30 AM80.6 °F69.8 °F70 %29.89 in6.2 miENE (60°)4.6 mphScattered Clouds
1:00 AM77.0 °F73.0 °F84 %29.86 in6.0 miCalmScattered Clouds
1:00 AM80.6 °F69.8 °F70 %29.89 in6.2 miCalmScattered Clouds
1:30 AM77.0 °F71.6 °F83 %29.89 in6.2 miCalmScattered Clouds
2:30 AM77.0 °F71.6 °F83 %29.89 in6.2 miCalmScattered Clouds
4:00 AM75.2 °F71.6 °F89 %29.86 in6.2 miCalmScattered Clouds
4:30 AM75.2 °F71.6 °F89 %29.86 in6.2 miCalmScattered Clouds
5:00 AM75.2 °F71.6 °F89 %29.86 in6.2 miCalmScattered Clouds
6:00 AM75.2 °F71.6 °F89 %29.89 in6.2 miCalmScattered Clouds
6:30 AM75.2 °F71.6 °F89 %29.89 in6.2 miCalmScattered Clouds
7:00 AM75.2 °F71.6 °F89 %29.89 in6.2 miCalmMostly Cloudy
7:00 AM75.0 °F73.0 °F91 %29.87 in6.0 miCalmScattered Clouds
7:30 AM77.0 °F73.4 °F89 %29.89 in6.2 miCalmMostly Cloudy
8:00 AM78.8 °F71.6 °F78 %29.92 in6.2 miENE (60°)5.8 mphMostly Cloudy
9:30 AM84.2 °F71.6 °F66 %29.92 in6.2 miEast (90°)10.4 mphScattered Clouds
10:00 AM86.0 °F71.6 °F62 %29.92 in6.2 miEast (80°)12.7 mphPartly Cloudy
10:30 AM87.8 °F71.6 °F58 %29.92 in6.2 miEast (80°)16.1 mphScattered Clouds
11:00 AM89.6 °F69.8 °F52 %29.89 in6.2 miEast (90°)19.6 mphScattered Clouds
11:30 AM89.6 °F69.8 °F52 %29.89 in6.2 miEast (80°)18.4 mphScattered Clouds
12:00 PM89.6 °F69.8 °F52 %29.89 in6.2 miEast (80°)15.0 mphScattered Clouds
12:30 PM91.4 °F68.0 °F46 %29.86 in6.2 miEast (90°)16.1 mphScattered Clouds
1:00 PM91.0 °F72.0 °F44 %29.85 in6.0 miEast (90°)12.7 mphScattered Clouds
1:00 PM93.2 °F68.0 °F44 %29.86 in6.2 miEast (80°)12.7 mphScattered Clouds
1:30 PM75.2 °F68.0 °F78 %29.86 in6.2 miEast (90°)16.1 mphScattered Clouds
2:00 PM93.2 °F68.0 °F44 %29.83 in6.2 miENE (60°)15.0 mphScattered Clouds
2:30 PM93.2 °F66.2 °F41 %29.83 in6.2 miEast (90°)10.4 mphScattered Clouds
3:00 PM95.0 °F66.2 °F39 %29.80 in6.2 miEast (90°)12.7 mphScattered Clouds
3:30 PM95.0 °F66.2 °F39 %29.80 in6.2 miEast (80°)13.8 mphScattered Clouds
4:00 PM89.6 °F75.2 °F62 %29.80 in6.2 miWNW (300°)8.1 mphScattered Clouds
6:00 PM86.0 °F75.2 °F70 %29.83 in6.2 miWest (280°)4.6 mphScattered Clouds
6:30 PM84.2 °F73.4 °F70 %29.83 in6.2 miCalmMostly Cloudy
7:00 PM82.4 °F75.2 °F79 %29.83 in6.2 miCalmMostly Cloudy
7:30 PM82.4 °F75.2 °F79 %29.86 in6.2 miCalmScattered Clouds
8:00 PM82.4 °F73.4 °F74 %29.86 in6.2 miENE (70°)4.6 mphScattered Clouds
8:30 PM84.2 °F69.8 °F62 %29.89 in6.2 miENE (70°)8.1 mphScattered Clouds
9:00 PM86.0 °F69.8 °F58 %29.89 in5.6 miEast (100°)10.4 mphScattered Clouds
9:30 PM86.0 °F69.8 °F58 %29.92 in5.6 miEast (100°)8.1 mphScattered Clouds
10:00 PM84.2 °F69.8 °F62 %29.92 in5.6 miEast (80°)8.1 mphScattered Clouds
10:30 PM84.2 °F69.8 °F62 %29.92 in5.6 miEast (90°)11.5 mphScattered Clouds
11:00 PM84.2 °F69.8 °F62 %29.92 in5.6 miEast (100°)10.4 mphScattered Clouds
11:30 PM82.4 °F69.8 °F66 %29.92 in5.6 miEast (100°)9.2 mphScattered Clouds
Hourly data recorded from VTSP, located miles away from Ban Muang Mai, Thailand







STORIES FROM OUR PARTNERS